[[{"header":{"parameterUnit":"m.s-1","parameterCategory":1,"la1":30.2991,"la2":30.254,"lo1":-89.0895,"lo2":-89.0444,"dy":0.0017,"dx":0.0017,"nx":28,"ny":28,"refTime":"2024-02-28T09:00:00:Z","depth":0,"parameterNumber":2,"parameterNumberName":"U-component_of_WINDS"},"data":[0,0,0,0,0,0,0,0,0,0,0,0,0,0,0,0,0,0,0,0,0,0,0,0,0,0,0,0,0,0,0,0,0,0,0,0,0,0,0,0,0,0,0,0,0,0,0,0,0,0,0,0,0,0,0,0,0,0,-4.6879,-4.6879,0,-4.6927,-4.6928,-4.6928,-4.6826,-4.6822,-4.6819,-4.6816,-4.6865,-4.6869,-4.6874,0,0,0,0,0,0,0,0,0,0,0,0,0,-4.6696,-4.67,-4.6879,-4.6879,-4.688,-4.6927,-4.6928,-4.6928,-4.6826,-4.6822,-4.6818,-4.6814,-4.6864,-4.6869,-4.6874,0,0,0,0,0,0,0,0,0,0,0,0,0,-4.6763,-4.6702,-4.6879,-4.6835,-4.6831,-4.6927,-4.6928,-4.6929,-4.6827,-4.6822,-4.6817,-4.6812,-4.6862,-4.6868,-4.6875,-4.7016,0,0,-4.6895,-4.6898,0,0,0,0,0,0,0,0,-4.676,-4.677,-4.684,-4.6838,-4.6834,-4.6865,-4.6881,-4.6958,-4.6828,-4.6829,-4.6816,-4.681,-4.6869,-4.6875,-4.6895,-4.7018,-4.702,-4.6896,-4.69,-4.6903,-4.6905,0,0,0,0,0,0,0,-4.6755,-4.6768,-4.6898,-4.6842,-4.6838,-4.6812,-4.6816,-4.6896,-4.6876,-4.6828,-4.6821,-4.6828,-4.6866,-4.6889,-4.6895,-4.7021,-4.6896,-4.6901,-4.6906,-4.6908,-4.7262,-4.7267,0,0,0,0,0,0,-4.6756,-4.6764,-4.6896,-4.6899,-4.6784,-4.6819,-4.6824,-4.686,-4.6875,-4.6873,-4.6832,-4.6823,-4.688,-4.6888,-4.6897,-4.7063,-4.6903,-4.6909,-4.6913,-4.7256,-4.7263,-4.7269,0,0,0,0,0,0,-4.6753,-4.6769,-4.6894,-4.683,-4.6844,-4.6828,-4.687,-4.6864,-4.6886,-4.6878,-4.6874,-4.6859,-4.6876,-4.6887,-4.6987,-4.7063,-4.6912,-4.6918,-4.725,-4.7258,-4.7266,-4.7397,0,0,0,0,0,0,-4.6748,-4.6768,-4.6822,-4.6832,-4.6848,-4.6985,-4.6874,-4.6868,-4.6898,-4.6886,-4.6902,-4.69,-4.6873,-4.6978,-4.6994,-4.707,-4.6923,-4.7243,-4.7254,-4.7263,-4.7385,-4.7408,-4.7428,0,0,0,0,0,-4.6742,-4.6857,-4.6825,-4.6842,-4.6915,-4.6989,-4.6998,-4.6966,-4.6904,-4.6958,-4.6953,-4.6899,-4.7052,-4.6989,-4.7006,-4.7085,-4.7238,-4.7251,-4.7262,-4.7376,-4.7404,-4.7427,0,0,0,0,0,0,-4.6856,-4.6857,-4.6822,-4.6944,-4.6967,-4.6972,-4.7039,-4.6996,-4.7037,-4.7024,-4.6982,-4.6986,-4.7094,-4.7099,-4.7028,-4.7222,-4.7135,-4.7151,-4.7215,-4.7241,-4.7262,-4.7259,-4.6928,0,0,0,0,0,-4.6896,-4.6957,-4.6954,-4.7061,-4.7075,-4.7055,-4.7086,-4.7059,-4.7081,-4.7091,-4.7092,-4.7116,-4.7169,-4.7205,-4.7254,-4.7385,-4.7387,-4.7448,-4.7469,-4.7486,-4.7501,-4.7571,-4.7598,-4.7309,-4.7309,-4.7308,0,0,-4.6978,-4.6986,-4.7027,-4.7085,-4.71,-4.7163,-4.7064,-4.7136,-4.7183,-4.7101,-4.7196,-4.7198,-4.7221,-4.7338,-4.7389,-4.7345,-4.7581,-4.7502,-4.7516,-4.7521,-4.7586,-4.7614,-4.7638,-4.7317,-4.7316,-4.7314,0,0,-4.7161,-4.7173,-4.7264,-4.7281,-4.7304,-4.729,-4.7312,-4.7323,-4.7321,-4.7415,-4.7356,-4.741,-4.7503,-4.7522,-4.7544,-4.7733,-4.7686,-4.775,-4.7861,-4.793,-4.7952,-4.7972,-4.8041,-4.8066,-4.7764,-4.7765,-4.7765,0,-4.726,-4.7354,-4.7316,-4.7392,-4.7419,-4.7348,-4.744,-4.7458,-4.7497,-4.7517,-4.7467,-4.7582,-4.7592,-4.7712,-4.7758,-4.7778,-4.7802,-4.7749,-4.7952,-4.7972,-4.799,-4.8055,-4.808,-4.7773,-4.7772,-4.7771,-4.777,0,-4.7475,-4.7541,-4.7612,-4.7651,-4.7686,-4.777,-4.7744,-4.7784,-4.7753,-4.7744,-4.7841,-4.7851,-4.79,-4.7926,-4.7897,-4.8042,-4.8014,-4.7959,-4.7871,-4.8026,-4.8086,-4.811,-4.7784,-4.7781,-4.7779,-4.7777,0,0,-4.7733,-4.7749,-4.7776,-4.7793,-4.7813,-4.7864,-4.7944,-4.7992,-4.8027,-4.8056,-4.8122,-4.8201,-4.815,-4.8175,-4.8147,-4.8208,-4.8358,-4.8145,-4.8145,-4.8185,-4.8519,-4.8561,-4.8591,-4.8325,-4.833,-4.8334,-4.8517,0,-4.7914,-4.8053,-4.802,-4.8157,-4.8218,-4.8151,-4.822,-4.8241,-4.8234,-4.8284,-4.8276,-4.8334,-4.8262,-4.8276,-4.8333,-4.8328,-4.8424,-4.8314,-4.8387,-4.839,-4.8385,-4.8622,-4.8667,-4.884,-4.854,-4.8544,-4.8547,0,-4.8145,-4.8183,-4.8326,-4.8336,-4.836,-4.8424,-4.8466,-4.8514,-4.8535,-4.8526,-4.8554,-4.8514,-4.8593,-4.8503,-4.8611,-4.8537,-4.8564,-4.8566,-4.8572,-4.8579,-4.8479,-4.8636,-4.8894,-4.8921,-4.8583,-4.8581,-4.8578,0,-4.832,-4.8406,-4.8503,-4.8519,-4.8534,-4.858,-4.8588,-4.8604,-4.8635,-4.8671,-4.8691,-4.8736,-4.8761,-4.8796,-4.8769,-4.8706,-4.8882,-4.8789,-4.8877,-4.8878,-4.8918,-4.8916,-4.9186,-4.8934,-4.8934,-4.8934,-4.8933,0,-4.8527,-4.8617,-4.8582,-4.8641,-4.874,-4.8702,-4.8801,-4.8801,-4.8816,-4.8874,-4.8818,-4.8874,-4.8834,-4.8887,-4.8866,-4.8959,-4.897,-4.8965,-4.8959,-4.8971,-4.8972,-4.899,-4.8978,-4.894,-4.8939,-4.8938,-4.8936,0,-4.874,-4.8719,-4.882,-4.8826,-4.8829,-4.8902,-4.8906,-4.8962,-4.895,-4.9025,-4.904,-4.9023,-4.9082,-4.9058,-4.912,-4.9105,-4.9225,-4.9202,-4.9219,-4.9213,-4.9302,-4.9295,-4.9593,-4.9631,-4.9355,-4.9357,-4.936,0,-4.8874,-4.8942,-4.8954,-4.899,-4.9002,-4.9059,-4.9091,-4.9055,-4.909,-4.9119,-4.9171,-4.9224,-4.9266,-4.9362,-4.9355,-4.9402,-4.9381,-4.9482,-4.9388,-4.9398,-4.9384,-4.938,-4.9387,-4.9502,-4.9505,-4.9508,-4.951,0,-4.9114,-4.9101,-4.9148,-4.9193,-4.9232,-4.9266,-4.9294,-4.9326,-4.9291,-4.9333,-4.9393,-4.9425,-4.9488,-4.9542,-4.9584,-4.9591,-4.9546,-4.9539,-4.9562,-4.9576,-4.9583,-4.9581,-4.9272,-4.9533,-4.9531,-4.9529,-4.9528,-4.9527,-4.9292,-4.935,-4.9368,-4.9423,-4.944,-4.9468,-4.952,-4.9516,-4.9565,-4.9614,-4.9589,-4.9658,-4.9677,-4.9728,-4.9742,-4.9795,-4.9755,-4.9789,-4.9797,-4.9806,-4.9818,-4.9574,-4.9802,-4.9802,-4.9801,-4.9801,-4.98,0,-4.9531,-4.9539,-4.959,-4.9631,-4.9675,-4.9627,-4.9656,-4.9695,-4.9757,-4.9778,-4.982,-4.9888,-4.994,-4.9937,-4.9985,-5.0028,-5.0008,-5.0042,-5.0039,-5.0042,-4.9851,-4.9827,-5.0057,-5.0057,-5.0057,-5.0057,-5.0057,-5.0057,-4.966,-4.9755,-4.9744,-4.9847,-4.9853,-4.9921,-4.9942,-4.9967,-4.9983,-5.0063,-5.0106,-5.0103,-5.0114,-5.0162,-5.0208,-5.0205,-5.0226,-5.0268,-5.0258,-5.008,-5.0055,-5.0031,-5.0008,-5.0273,-5.0273,-5.0445,-5.0446,-5.0447]},{"header":{"parameterUnit":"m.s-1","parameterCategory":1,"la1":30.2991,"la2":30.254,"lo1":-89.0895,"lo2":-89.0444,"dy":0.0017,"dx":0.0017,"nx":28,"ny":28,"refTime":"2024-02-28T09:00:00:Z","depth":0,"parameterNumber":3,"parameterNumberName":"V-component_of_WINDS"},"data":[0,0,0,0,0,0,0,0,0,0,0,0,0,0,0,0,0,0,0,0,0,0,0,0,0,0,0,0,0,0,0,0,0,0,0,0,0,0,0,0,0,0,0,0,0,0,0,0,0,0,0,0,0,0,0,0,0,0,-7.1993,-7.1994,0,-7.2077,-7.2078,-7.2079,-7.1988,-7.1984,-7.1981,-7.1978,-7.2059,-7.2064,-7.2069,0,0,0,0,0,0,0,0,0,0,0,0,0,-7.1748,-7.1753,-7.1993,-7.1994,-7.1996,-7.2077,-7.2078,-7.208,-7.1988,-7.1984,-7.198,-7.1976,-7.2057,-7.2063,-7.207,0,0,0,0,0,0,0,0,0,0,0,0,0,-7.1845,-7.1755,-7.1993,-7.196,-7.1958,-7.2077,-7.2078,-7.208,-7.1989,-7.1984,-7.1979,-7.1974,-7.2055,-7.2063,-7.2071,-7.2225,0,0,-7.2095,-7.2099,0,0,0,0,0,0,0,0,-7.184,-7.1855,-7.1964,-7.1962,-7.196,-7.2017,-7.2022,-7.2128,-7.1991,-7.1977,-7.1977,-7.1971,-7.2049,-7.2057,-7.2084,-7.2229,-7.2233,-7.2096,-7.2101,-7.2105,-7.2107,0,0,0,0,0,0,0,-7.1833,-7.185,-7.2026,-7.1965,-7.1963,-7.1939,-7.1947,-7.2041,-7.2041,-7.1978,-7.1972,-7.1983,-7.2047,-7.2076,-7.2085,-7.2234,-7.2096,-7.2103,-7.2108,-7.2111,-7.2508,-7.2514,0,0,0,0,0,0,-7.1831,-7.1845,-7.2024,-7.2029,-7.1886,-7.1948,-7.1957,-7.2004,-7.204,-7.204,-7.1987,-7.1978,-7.2065,-7.2076,-7.2088,-7.2271,-7.2105,-7.2112,-7.2117,-7.2503,-7.2509,-7.2516,0,0,0,0,0,0,-7.1826,-7.1848,-7.202,-7.1936,-7.1956,-7.1957,-7.2011,-7.2008,-7.2038,-7.2047,-7.2046,-7.2018,-7.2061,-7.2076,-7.2192,-7.2272,-7.2116,-7.2123,-7.2496,-7.2505,-7.2512,-7.2638,0,0,0,0,0,0,-7.182,-7.1847,-7.1907,-7.1938,-7.1961,-7.2125,-7.2016,-7.2014,-7.2053,-7.2042,-7.2076,-7.2076,-7.2059,-7.218,-7.22,-7.228,-7.2129,-7.2489,-7.25,-7.251,-7.2627,-7.265,-7.267,0,0,0,0,0,-7.1811,-7.1938,-7.1911,-7.1933,-7.2036,-7.213,-7.2143,-7.2121,-7.206,-7.2119,-7.2125,-7.2075,-7.226,-7.2193,-7.2214,-7.2298,-7.2483,-7.2497,-7.2509,-7.2617,-7.2645,-7.2669,0,0,0,0,0,0,-7.1915,-7.1942,-7.1911,-7.2052,-7.209,-7.2115,-7.2189,-7.2152,-7.2207,-7.2194,-7.2163,-7.2171,-7.2294,-7.2307,-7.2232,-7.2449,-7.2361,-7.2379,-7.2436,-7.2463,-7.2484,-7.2478,-7.2136,0,0,0,0,0,-7.1955,-7.2031,-7.2049,-7.2171,-7.2192,-7.2188,-7.2228,-7.2208,-7.2245,-7.226,-7.2274,-7.231,-7.2376,-7.242,-7.2481,-7.2628,-7.2633,-7.2696,-7.2717,-7.2735,-7.2751,-7.2828,-7.2856,-7.2557,-7.2557,-7.2557,0,0,-7.2037,-7.2061,-7.211,-7.2193,-7.222,-7.2297,-7.2202,-7.2288,-7.2344,-7.2272,-7.2383,-7.2394,-7.2432,-7.2564,-7.2622,-7.2579,-7.2834,-7.2751,-7.2765,-7.2771,-7.2844,-7.2872,-7.2897,-7.2566,-7.2565,-7.2563,0,0,-7.2227,-7.2253,-7.2358,-7.2387,-7.2429,-7.2425,-7.245,-7.2481,-7.2486,-7.2596,-7.2544,-7.2609,-7.2724,-7.2753,-7.2783,-7.2983,-7.2939,-7.3004,-7.3115,-7.3191,-7.3215,-7.3235,-7.3306,-7.3332,-7.3019,-7.3019,-7.302,0,-7.2323,-7.244,-7.2416,-7.2506,-7.2543,-7.2483,-7.2588,-7.2616,-7.2676,-7.2702,-7.2652,-7.2795,-7.2816,-7.2953,-7.3002,-7.3029,-7.3055,-7.3,-7.3214,-7.3234,-7.3253,-7.332,-7.3347,-7.3027,-7.3026,-7.3025,-7.3025,0,-7.2556,-7.2638,-7.2717,-7.2778,-7.2823,-7.2921,-7.2909,-7.2958,-7.2934,-7.2935,-7.3047,-7.3071,-7.3135,-7.3166,-7.3143,-7.33,-7.3272,-7.3219,-7.313,-7.329,-7.3352,-7.3378,-7.3038,-7.3035,-7.3033,-7.3031,0,0,-7.2814,-7.2861,-7.289,-7.2917,-7.2958,-7.302,-7.3113,-7.3178,-7.322,-7.3263,-7.3339,-7.3437,-7.3388,-7.3422,-7.3401,-7.3468,-7.3624,-7.3406,-7.3407,-7.3446,-7.3798,-7.3837,-7.3868,-7.3595,-7.36,-7.3604,-7.3794,0,-7.3005,-7.3169,-7.315,-7.3306,-7.338,-7.3323,-7.3404,-7.3437,-7.344,-7.3502,-7.3503,-7.3574,-7.3504,-7.3524,-7.3588,-7.3592,-7.3694,-7.3578,-7.3664,-7.3668,-7.3657,-7.39,-7.3943,-7.4122,-7.3818,-7.3823,-7.3826,0,-7.3249,-7.3302,-7.3467,-7.3496,-7.3527,-7.36,-7.3657,-7.3718,-7.3753,-7.375,-7.3789,-7.3756,-7.3847,-7.3757,-7.3881,-7.3803,-7.3836,-7.3844,-7.385,-7.3857,-7.3757,-7.3914,-7.4179,-7.4206,-7.3864,-7.3861,-7.3858,0,-7.3421,-7.3533,-7.3646,-7.367,-7.3708,-7.3761,-7.3778,-7.3809,-7.3849,-7.3898,-7.3923,-7.3982,-7.4014,-7.406,-7.4043,-7.3979,-7.4171,-7.4079,-7.417,-7.417,-7.4213,-7.4211,-7.4487,-7.4235,-7.4235,-7.4234,-7.4234,0,-7.3636,-7.3738,-7.3724,-7.3793,-7.3905,-7.3881,-7.3992,-7.4002,-7.403,-7.4099,-7.4052,-7.4117,-7.4091,-7.4154,-7.4141,-7.4246,-7.426,-7.4259,-7.4255,-7.4264,-7.4264,-7.4286,-7.4273,-7.4241,-7.424,-7.4238,-7.4237,0,-7.3847,-7.3841,-7.396,-7.3986,-7.3995,-7.4077,-7.4098,-7.4162,-7.4161,-7.4248,-7.4267,-7.4265,-7.4337,-7.4324,-7.4403,-7.4394,-7.4525,-7.4505,-7.4514,-7.4509,-7.4601,-7.4592,-7.49,-7.4939,-7.4663,-7.4665,-7.4668,0,-7.3985,-7.4062,-7.4097,-7.4141,-7.4163,-7.4233,-7.4274,-7.4252,-7.4296,-7.4342,-7.4401,-7.4468,-7.4521,-7.4638,-7.4642,-7.4701,-7.4682,-7.4786,-7.4691,-7.4697,-7.4683,-7.4679,-7.4686,-7.4805,-7.4808,-7.4811,-7.4813,0,-7.4229,-7.4223,-7.4284,-7.4346,-7.4396,-7.4442,-7.4484,-7.4521,-7.4503,-7.4554,-7.4628,-7.4669,-7.475,-7.4817,-7.4872,-7.4888,-7.4847,-7.4843,-7.4867,-7.4877,-7.4879,-7.4879,-7.4565,-7.4836,-7.4833,-7.4832,-7.483,-7.483,-7.4408,-7.4474,-7.4509,-7.4579,-7.4608,-7.4648,-7.4709,-7.4716,-7.4778,-7.4843,-7.4825,-7.4909,-7.494,-7.5011,-7.5033,-7.5096,-7.5057,-7.5092,-7.5101,-7.511,-7.5121,-7.4869,-7.5106,-7.5105,-7.5104,-7.5104,-7.5103,0,-7.465,-7.4669,-7.4734,-7.4794,-7.4849,-7.4808,-7.4851,-7.4899,-7.4973,-7.5007,-7.5061,-7.5144,-7.5209,-7.5218,-7.5279,-7.5328,-7.5311,-7.5344,-7.5341,-7.5345,-7.5152,-7.5125,-7.5357,-7.5357,-7.5357,-7.5357,-7.5357,-7.5357,-7.4782,-7.4892,-7.489,-7.5013,-7.5031,-7.5113,-7.5142,-7.5177,-7.5204,-7.5301,-7.5355,-7.5361,-7.5384,-7.5446,-7.5503,-7.5504,-7.5528,-7.557,-7.5563,-7.5384,-7.5358,-7.5334,-7.5309,-7.5575,-7.5576,-7.575,-7.5752,-7.5753]}]]